User: anonymous   Login
Location: North Smoke Tower Site
(30.5430°N, 82.3390°W)
Time: 01:46:47
(UTC-05:00)
Language:

Cosmos 1980 Rocket - Orbit

View from above orbital plane
View from above orbital plane
View from above satellite
View from above satellite

Ground track
Ground track

The orbit data is extracted from the following two-line orbital elements,

1 19650U 88102B   16337.72978669  .00000210  00000-0  13138-3 0  9996
2 19650  71.0006  68.1894 0012396 127.5849 232.6402 14.15749742448188
Epoch (UTC): 02 December 2016 17:30:53
Eccentricity: 0.0012396
inclination: 71.0006°
perigee height: 831 km
apogee height: 849 km
right ascension of ascending node: 68.1894°
argument of perigee: 127.5849°
revolutions per day: 14.15749742
mean anomaly at epoch: 232.6402°
orbit number at epoch: 44818

The dashed part of the orbit path shows where the satellite is in the earth's shadow,  

DLR